Hauptseite
METAR-TAF:

METAR-TAF

Flughäfen :

Hohenfels, Deutschland

Breite: 49-13N, Länge: 011-50E, Höhe: 442 m

Beobachtung

Neuester Wetterbericht von vor 17 Minuten, um 03:11 UTC
Windstille
Temperatur -2°C
Luftfeuchtigkeit 100%
Luftdruck 1012 hPa
Sichtweite 10 km oder mehr
Geschlossene Wolkendecke in der Höhe von 900 ft
(schwach) gefrierend, Sprühregen

METAR: ETIH 210311Z AUTO 00000KT 9999 -FZDZ OVC009 M02/M02 A2989 RMK AO2 FZDZB00E04FZDZB07 SLP147 $

Zeit: 04:28 (03:28 UTC)


TAF: fehlend

Wetterbeobachtungen und Prognosen von mehr als 4000 Flughäfen (METAR und TAF Bericht).

Die verfügbaren Stationen werden durch gelbe und rote Markierungen auf der Karte dargestellt.

Führen Sie die Maus auf sie, um den Namen der Station zu sehen.

Darauf klicken, um die Beobachtung von Wetterbeobachtungen und Prognosen zu sehen.

Um die Karte zu ändern : klicken Sie auf den grünen Tasten mit einem schwarzen Kreuz Zum Vergrößern, auf den grünen Button mit einem Gedankenstrich zu verkleinern, oder auf die grünen Pfeile für benachbarte Karten.


METAR-TAF: